TimeMST,TemperatureF,Dew PointF,Humidity,Sea Level PressureIn,VisibilityMPH,Wind Direction,Wind SpeedMPH,Gust SpeedMPH,PrecipitationIn,Events,Conditions,WindDirDegrees,DateUTC
12:15 AM,32.0,28.4,87,30.09,10.0,NNW,9.2,-,N/A,,Clear,330,2012-12-06 07:15:00
12:35 AM,32.0,28.4,87,30.09,10.0,NW,5.8,-,N/A,,Clear,320,2012-12-06 07:35:00
12:55 AM,30.2,28.4,93,30.09,10.0,NW,4.6,-,N/A,,Clear,320,2012-12-06 07:55:00
1:15 AM,30.2,26.6,86,30.09,10.0,NNW,10.4,-,N/A,,Clear,330,2012-12-06 08:15:00
1:35 AM,30.2,26.6,86,30.08,10.0,NNW,6.9,-,N/A,,Clear,330,2012-12-06 08:35:00
1:55 AM,30.2,26.6,86,30.07,10.0,NNW,6.9,-,N/A,,Clear,340,2012-12-06 08:55:00
2:15 AM,30.2,26.6,86,30.07,10.0,NNW,9.2,-,N/A,,Clear,340,2012-12-06 09:15:00
2:35 AM,30.2,26.6,86,30.08,10.0,NNW,9.2,-,N/A,,Clear,330,2012-12-06 09:35:00
2:55 AM,30.2,26.6,86,30.08,10.0,NNW,6.9,-,N/A,,Clear,340,2012-12-06 09:55:00
3:15 AM,28.4,26.6,93,30.08,10.0,NNW,10.4,-,N/A,,Clear,340,2012-12-06 10:15:00
3:35 AM,28.4,24.8,86,30.07,10.0,NNW,6.9,-,N/A,,Clear,340,2012-12-06 10:35:00
3:55 AM,28.4,24.8,86,30.07,10.0,NW,10.4,-,N/A,,Clear,320,2012-12-06 10:55:00
4:15 AM,28.4,24.8,86,30.07,10.0,NNW,13.8,-,N/A,,Clear,330,2012-12-06 11:15:00
4:35 AM,28.4,24.8,86,30.06,10.0,NNW,11.5,-,N/A,,Clear,340,2012-12-06 11:35:00
4:55 AM,28.4,23.0,80,30.05,10.0,NNW,10.4,-,N/A,,Clear,340,2012-12-06 11:55:00
5:15 AM,28.4,23.0,80,30.05,10.0,NNW,13.8,-,N/A,,Clear,340,2012-12-06 12:15:00
5:35 AM,26.6,23.0,86,30.04,10.0,NNW,13.8,-,N/A,,Clear,340,2012-12-06 12:35:00
5:55 AM,26.6,23.0,86,30.04,10.0,NNW,12.7,-,N/A,,Clear,330,2012-12-06 12:55:00
6:47 AM,26.6,21.2,80,30.06,10.0,NW,11.5,-,N/A,,Partly Cloudy,320,2012-12-06 13:47:00
7:47 AM,24.8,21.2,86,30.05,10.0,WNW,11.5,-,N/A,,Scattered Clouds,300,2012-12-06 14:47:00
8:47 AM,24.8,21.2,86,30.05,10.0,WNW,11.5,-,N/A,,Partly Cloudy,300,2012-12-06 15:47:00
9:47 AM,28.4,21.2,74,30.05,10.0,WNW,9.2,-,N/A,,Scattered Clouds,300,2012-12-06 16:47:00
10:47 AM,30.2,23.0,75,30.05,10.0,WNW,9.2,-,N/A,,Scattered Clouds,300,2012-12-06 17:47:00
11:48 AM,32.0,24.8,75,30.02,10.0,NW,6.9,-,N/A,,Mostly Cloudy,310,2012-12-06 18:48:00
12:47 PM,37.4,26.6,65,29.99,10.0,WNW,6.9,-,N/A,,Mostly Cloudy,290,2012-12-06 19:47:00
1:47 PM,37.4,26.6,65,29.96,10.0,NW,3.5,-,N/A,,Mostly Cloudy,320,2012-12-06 20:47:00
2:47 PM,39.2,26.6,61,29.95,10.0,West,4.6,-,N/A,,Mostly Cloudy,270,2012-12-06 21:47:00
3:47 PM,39.2,24.8,56,29.94,10.0,West,8.1,-,N/A,,Scattered Clouds,270,2012-12-06 22:47:00
6:47 PM,35.6,21.2,56,29.94,10.0,South,5.8,-,N/A,,Clear,180,2012-12-07 01:47:00
7:47 PM,30.2,24.8,80,29.95,10.0,Calm,Calm,-,N/A,,Clear,0,2012-12-07 02:47:00
8:47 PM,30.2,24.8,80,29.96,10.0,NW,5.8,-,N/A,,Clear,310,2012-12-07 03:47:00
9:47 PM,28.4,23.0,80,29.98,10.0,NW,5.8,-,N/A,,Clear,310,2012-12-07 04:47:00
10:15 PM,28.4,23.0,80,29.98,10.0,NNW,4.6,-,N/A,,Clear,340,2012-12-07 05:15:00
10:35 PM,28.4,23.0,80,29.98,10.0,NNW,9.2,-,N/A,,Clear,330,2012-12-07 05:35:00
10:47 PM,26.6,21.2,80,29.99,10.0,NW,5.8,-,N/A,,Clear,310,2012-12-07 05:47:00
10:55 PM,28.4,21.2,74,29.99,10.0,NW,8.1,-,N/A,,Clear,320,2012-12-07 05:55:00
11:15 PM,28.4,21.2,74,29.99,10.0,NNW,8.1,-,N/A,,Clear,330,2012-12-07 06:15:00
11:35 PM,26.6,21.2,80,30.00,10.0,NW,9.2,-,N/A,,Clear,320,2012-12-07 06:35:00
11:55 PM,26.6,21.2,80,30.00,10.0,NNW,6.9,-,N/A,,Clear,330,2012-12-07 06:55:00